Find Starlink 3900

NORAD ID: 52461 Int'l Des: 2022-049 Owner: SPXS Country: US Constellation: starlink operational
LEOCIRCULAR

現在のビュー

3D地球を読み込み中...

About Starlink 3900

Starlink 3900 (NORAD 52461) is a starlink constellation satellite (v1.5) launched May 6, 2022 by SPXS of US. It operates in LEO, CIRCULAR orbit with a mass of 297.00 kg.

Starlink 3900について

説明を読み込み中...

次回通過

Passes for default location (London). Set your location on the main map for personalized predictions.

高度履歴

Loading altitude history...

軌道要素

1 52461U 22049L 26169.68938742 -.00001891 00000-0 -10079-3 0 9997
2 52461 53.1604 315.6077 0001421 97.0877 263.0276 15.08825765227637
Epoch: Jun 18, 2026 • Age: 18 hours

現在のステータス

高度 542.9 km
速度 7.60 km/s
衛星直下点 42.03°N, 23.71°E
打ち上げ日 May 6, 2022
運用期間 4.1 years
タイプ internet

技術仕様

分類 Payload
質量 297.00 kg
乾燥質量 220.00 kg
総質量 297.00 kg
長さ 0.20 m
直径 2.80 m
スパン 9.00 m
形状 Box + pan
製造者 SPXS
バスタイプ Starlink
フェーズステータス In Orbit
所有者/国 SPXS/US

Most Searched